AAC-HSI-SAT3

导读

AAC-HSI-SAT3是一颗由英国(GB)于2023年11月11日08:00发射的高光谱遥感卫星,名称中"HSI"即高光谱成像(Hyperspectral Imaging)的缩写,延续同系列卫星技术路径,聚焦对地观测领域。作为2023年英国商业航天发射的成果之一,该卫星旨在提供高分辨率光谱数据,可服务于矿产勘探、环境监测、农业估产等多领域应用,进一步丰富全球高光谱观测卫星网络,助力地球科学研究与资源开发。

Basic Information
目录编号:
58848
目录名称:
AAC-HSI-SAT3
国际标识:
2023-174DH
轨道中心:
EARTH
卫星名称:
AAC-HSI-SAT3
卫星全名:
--
卫星状态:
在轨 (已飞行1036 天)
发射日期:
2023-11-11 UTC
国别 :
英国 (GB)
星等 :
--
This satellite is enrolled in the Space Conjunction Data Service (SCDS) and the current flight risk assessment level is: No High Risk
Orbit Information
数据来源 国际轨道数据
星历时间: 2026-09-12T14:28:24+0800
9小时前
查看轨道信息
半长轴: 6895.695km
偏心率: 0.0012001
轨道倾角: 97.332°
近地点辐角 68.846°
升交点赤经 311.763°
平近点角 291.406°
近地点: 509.282km
远地点: 525.834km
周期: 94.979分钟
每日圈数: 15.161277
Detailed Information
使用方式:
暂无
2D Orbit Map
3D Orbit Map
Orbit Altitude Analysis Chart
Orbit Inclination Analysis Chart
Orbit Comprehensive Analysis Chart
View Comprehensive Chart
Conjunction Data List
Event ID Objects TCA Miss Dist (km) Collision Risk Probability Collision Risk Index (CRI) Action
CDM_260913-084205-596405-884821
2026-09-13T
08:42:27+0000
2.726 km
极远距离
1.538968E-6 低风险 0.39
CDM_260913-112105-695005-884822
2026-09-13T
11:21:06+0000
2.516 km
极远距离
1.349141E-6 低风险 0.38
Miss Distance Evolution Trend with All Objects
Collision Probability Evolution Trend with All Objects